Regional Weather Roundup
Issued by NWS Goodland, KS

Home | Current Version | Previous Version | Graphics & Text | Print | Product List | Glossary On
Versions: 1 2 3 4 5 6 7 8 9 10 11 12 13 14 15 16 17 18 19 20 21 22 23 24 25 26 27 28 29 30 31 32 33 34 35 36 37 38 39 40 41 42 43 44 45 46 47 48 49 50
633
ASUS43 KGLD 270059
RWRGLD

GOODLAND FORECAST AREA HOURLY WEATHER ROUNDUP
NATIONAL WEATHER SERVICE GOODLAND KS
700 PM MDT SUN MAR 26 2017

...OFFICIAL OBSERVATIONS...

CITY           SKY/WX    TMP DP  RH WIND       PRES   REMARKS
GOODLAND KS    CLOUDY    46  44  93 SE6       29.91R
HILL CITY KS   CLOUDY    46  45  96 NW5       29.94R
IMPERIAL NEB   CLOUDY    53  40  61 E6        29.89R
MCCOOK NEB     CLOUDY    50  42  74 SE8       29.91R
AKRON CO       PTCLDY    49  35  58 NW8       29.92R
BURLINGTON CO  CLOUDY    47  40  76 E7        29.91R
LIMON CO       CLEAR     45  36  70 N7        29.94R
$$

...UNOFFICIAL OBSERVATIONS...

CITY           SKY/WX    TMP DP  RH WIND       PRES   REMARKS
LENORA KS        N/A     45  32  60 CALM        N/A
NORTON KS      CLOUDY    48  43  81 CALM      29.93R
SHARON SPRINGS   N/A     43  42  96 E5          N/A
TRENTON NEB      N/A     48  32  54 CALM        N/A
YUMA CO        FAIR      48  36  61 N3        29.90R
$$




USA.gov is the U.S. government's official web portal to all federal, state and local government web resources and services.